Preview of NWS' New Version of Forecast
This preview is not operational and should not be used for support decisions.
Latest weather observations around

Dallas/Fort Worth International Airport (KDFW)

Using English Units (Switch to International System of Units)
Date/ Time (CDT) Wind (mph) Vis. (mi) Weather Sky Cond. Temp (°F) Rel. Humidity Wind Chill (°F) Heat Index (°F) Pressure Precip. (in)
Air Dwpt 6 hour Altimeter (inHg) Sea level (inHg) 1 hr 3 hr 6 hr
Max Min
Aug 19 08:53 S 14 10 Mostly Clear FEW120 FEW300 84 73     70%   90 29.98 29.94      
Aug 19 07:53 S 13 10 Mostly Clear FEW120 FEW300 81 71     72%   85 29.96 29.93      
Aug 19 06:53 S 11 10 Partly Cloudy FEW120 SCT300 81 70     69%   84 29.95 29.92      
Aug 19 05:53 S 9 10 Mostly Clear FEW120 FEW300 82 71     69%   86 29.94 29.91      
Aug 19 04:53 S 10 10 Mostly Clear FEW120 FEW300 83 72     70%   88 29.91 29.87      
Aug 19 03:53 SSE 9 10 Mostly Clear FEW300 84 72     67%   90 29.9 29.87      
Aug 19 02:53 S 10 10 Partly Cloudy SCT300 85 71     63%   90 29.89 29.86      
Aug 19 01:53 S 9 10 Partly Cloudy SCT300 86 70     59%   91 29.89 29.86      
Aug 19 00:53 SSE 11 10 Mostly Cloudy BKN300 87 68     53%   91 29.88 29.85      
Aug 18 23:53 SSE 9 10 Mostly Cloudy BKN300 87 67     51%   90 29.88 29.84      
Aug 18 22:53 SE 11 10 Mostly Cloudy BKN250 90 67     47%   93 29.87        
Aug 18 21:53 SE 10 10 Mostly Cloudy BKN250 91 69     49%   96 29.85 29.82      
Aug 18 20:53 SSE 14 10 Partly Cloudy SCT250 94 68     43%   99 29.82 29.79      
Aug 18 19:53 SSE 18 10 Mostly Clear FEW180 FEW250 96 68     40%   101 29.81 29.78      
Aug 18 18:53 SSE 13 10 Mostly Clear FEW250 98 68     38%   104 29.8 29.77      
Aug 18 17:53 SSE 22 10 Mostly Clear and Windy FEW250 99 68     37%   105 29.8 29.77      
Aug 18 16:53 SSE 13 10 Mostly Clear FEW050 FEW250 99 69     38%   106 29.82 29.79      
Aug 18 15:53 SSE 9 10 Mostly Clear FEW045 98 68     38%   104 29.84 29.8      
Aug 18 14:53 SSE 11 10 Mostly Clear FEW045 97 71     43%   105 29.85 29.82      
Aug 18 13:53 S 13 10 Mostly Clear FEW040 96 72     46%   105 29.87 29.83      
Aug 18 12:53 S 11 10 Mostly Clear FEW035 FEW300 92 73     54%   101 29.88 29.85      
Aug 18 11:53 S 13 10 Mostly Clear FEW025 FEW300 92 71     51%   99 29.89 29.85      
Aug 18 10:53   10 Mostly Clear FEW020 FEW045 88 72     59%   94 29.89        
Aug 18 09:53 SSW 18 10 Mostly Clear FEW020 FEW300 86 71     61%   92 29.88 29.85      
Aug 18 08:53 S 17 10 Mostly Clear FEW020 FEW300 83 72     70%   88 29.87 29.83      
Aug 18 07:53 S 15 10 Mostly Clear FEW300 81 71     72%   85 29.86 29.83      
Aug 18 06:53 S 17 10 Mostly Clear FEW300 81 71     72%   85 29.84 29.8      
Aug 18 05:53 S 15 10 Partly Cloudy SCT300 82 72     72%   87 29.8 29.77      
Aug 18 04:53 S 13 10 Partly Cloudy SCT300 82 72     72%   87 29.82 29.79      
Aug 18 03:53 S 13 10 Partly Cloudy SCT300 83 72     70%   88 29.82 29.79      
Aug 18 02:53 S 14 10 Partly Cloudy SCT300 84 72     67%   90 29.81 29.78      
Aug 18 01:53 S 17 10 Mostly Clear FEW300 85 72     65%   91 29.83 29.8      
Aug 18 00:53 SSE 17 10 Mostly Clear FEW300 86 71     61%   92 29.83 29.8      
Aug 17 23:53 SE 11 10 Mostly Clear FEW300 87 70     57%   92 29.82 29.79      
Aug 17 22:53 SE 13 10 Partly Cloudy SCT250 89 69     52%   94 29.81 29.78      
Aug 17 21:53 SE 13 10 Mostly Clear FEW250 90 68     49%   94 29.78 29.75      
Aug 17 20:53 SSE 14 10 Mostly Clear FEW250 92 69     47%   97 29.76 29.73      
Aug 17 19:53 SE 16 10 Mostly Clear FEW060 FEW250 94 69     45%   99 29.74 29.71      
Aug 17 18:53 SSE 14 10 Mostly Clear FEW060 FEW250 97 67     38%   101 29.75 29.72      
Aug 17 17:53 SSE 16 10 Partly Cloudy SCT060 SCT250 97 67     38%   101 29.76 29.73      
Aug 17 16:53 SE 11 10 Partly Cloudy SCT060 SCT250 99 69     38%   106 29.77 29.74      
Aug 17 15:53 S 13 10 Mostly Clear FEW060 FEW300 98 70     40%   105 29.78 29.75      
Aug 17 14:53 S 16 10 Mostly Clear FEW050 FEW300 98 70     40%   105 29.8 29.77      
Aug 17 13:53 S 14 10 Mostly Clear FEW045 FEW080 FEW300 96 70     43%   103 29.83 29.8      
Aug 17 12:53 S 14 10 Mostly Clear FEW080 FEW300 95 71     46%   103 29.86 29.82      
Aug 17 11:53 S 13 10 Mostly Clear FEW040 92 71     51%   99 29.88 29.85      
Aug 17 10:53 S 9 10 Clear CLR 89 71     55%   95 29.88 29.85      
Aug 17 09:53 S 11 10 Clear CLR 86 70     59%   91 29.88 29.85      
Aug 17 08:53 S 14 10 Mostly Clear FEW250 83 70     65%   87 29.88 29.85      
Aug 17 07:53 S 10 10 Mostly Clear FEW250 81 71     72%   85 29.87 29.84      
Aug 17 06:53 S 13 10 Mostly Clear FEW300 81 71     72%   85 29.85 29.82      
Aug 17 05:53 S 14 10 Clear CLR 82 71     69%   86 29.85 29.81      
Aug 17 04:53 S 13 10 Mostly Clear FEW300 82 73     74%   87 29.85 29.82      
Aug 17 03:53 S 11 10 Mostly Clear FEW300 83 73     72%   89 29.86 29.83      
Aug 17 02:53 S 14 10 Mostly Cloudy BKN300 84 73     70%   90 29.87 29.84      
Aug 17 01:53 SSE 13 10 Mostly Cloudy BKN300 85 72     65%   91 29.88 29.85      
Aug 17 00:53 SSE 15 10 Mostly Clear FEW300 86 71     61%   92 29.89 29.86      
Aug 16 23:53 SSE 16 10 Mostly Clear FEW250 88 71     57%   94 29.88 29.85      
Aug 16 22:53 SE 13 10 Mostly Clear FEW250 88 69     54%   92 29.87 29.84      
Aug 16 21:53 SE 11 10 Mostly Clear FEW250 89 68     50%   93 29.85 29.82      
Aug 16 20:53 SE 13 10 Mostly Clear FEW075 FEW250 90 67     47%   93 29.83 29.79      
Aug 16 19:53 SE 11 10 Mostly Clear FEW075 FEW250 93 66     41%   96 29.82 29.79      
Aug 16 18:53 SE 20 10 Mostly Clear and Windy FEW075 96 66     38%   100 29.83 29.8      
Aug 16 17:53 SE 21 10 Mostly Clear and Windy FEW075 99 68     37%   105 29.84 29.8      
Aug 16 16:53 ESE 13 10 Clear   99 69     38%   106 29.84 29.81      
Aug 16 15:53 SSE 10 10 Partly Cloudy SCT075 98 67     36%   103 29.86 29.83      
Aug 16 14:53 SSW 10 10 Partly Cloudy SCT060 99 65     33%   102 29.88 29.85      
Aug 16 13:53 S 10 10 Partly Cloudy SCT055 96 70     43%   103 29.91 29.88      
Aug 16 12:53 SSW 6 10 Mostly Clear FEW050 95 71     46%   103 29.93 29.9      
Aug 16 11:53 S 10 10 Mostly Clear FEW050 93 72     51%   101 29.95 29.91      
Aug 16 10:53 S 10 10 Clear CLR 90 73     58%   98 29.95 29.92      
Aug 16 09:53 SSW 9 10 Clear CLR 88 73     61%   96 29.95 29.91      
Aug 16 08:53 S 9 10 Clear CLR 84 73     70%   90 29.95 29.91      
Aug 16 07:53 S 8 10 Mostly Clear FEW300 81 72     74%   85 29.94 29.91      
Aug 16 06:53 S 7 10 Partly Cloudy FEW200 SCT300 79 71     77%   82 29.93 29.9      
Aug 16 05:53 S 8 10 Mostly Clear FEW300 80 70     71%   83 29.92 29.89      
Aug 16 04:53 S 10 10 Mostly Clear FEW300 81 70     69%   84 29.91 29.88      
Aug 16 03:53 SSE 7 10 Mostly Clear FEW300 81 70     69%   84 29.92 29.89      
May 14 05:53 SSE 10 10 Mostly Cloudy SCT016 BKN080 BKN250 74 70     87%   75 29.95 29.93      
May 13 23:53 SE 11 10 Mostly Cloudy FEW180 BKN250 80 68     67%   83 29.94 29.91      
May 13 21:53 SE 10 10 Partly Cloudy SCT250 81 66     61%   83 29.9 29.88      
May 13 16:53 SSE 18 10 Mostly Cloudy SCT055 BKN070 89 65     45%   91 29.9 29.88      
May 13 11:53   10 Mostly Cloudy BKN033 BKN048 BKN250 83 66     57%   85 30 29.98      
May 12 16:53   10 Mostly Clear FEW060 89 61     39%   89 29.9 29.87      
May 12 14:53 S 17 10 Mostly Clear FEW055 89 61     39%   89 29.93 29.9      
May 12 08:53 S 17 10 Mostly Cloudy BKN021 BKN028 76 69     79%   77 29.97 29.94      
May 12 04:53 S 17 10 Mostly Cloudy SCT022 BKN031 73 67     81%   74 29.89 29.86      
May 12 04:41 S 16 10 Mostly Cloudy SCT022 BKN031 74 67     79%   75 29.89        
May 12 03:31   10 Mostly Cloudy BKN019 73 67     81%   74 29.89        
May 12 01:53 S 16 10 Clear CLR 75 65     71%   76 29.88 29.86      
May 11 18:53   10 Mostly Clear FEW050 FEW250 86 60     42%   86 29.81 29.78      
May 11 15:53   10 Mostly Clear FEW050 88 62     42%   88 29.85 29.83      
May 11 13:53   10 Partly Cloudy SCT045 85 62     46%   86 29.9 29.88      
Jun 11 22:53 SSE 9 10 Clear CLR 82 69     65%   85 29.89 29.86      
Jun 11 09:53   10 Partly Cloudy SCT022 80 69     69%   83 29.93 29.91      
Jun 11 08:53 S 20 10 Mostly Cloudy and Windy BKN020 78 70     76%   79 29.92 29.9      
Jun 10 23:53 SSE 11 10 Clear CLR 79 67     67%   80 29.88 29.85      
Jun 10 02:53 SSE 11 10 Mostly Clear FEW055 FEW110 72 69     91%   73 29.84 29.81      
Jun 09 15:53 SE 14 10 Mostly Cloudy FEW027 SCT060 BKN180 BKN250 81 67     62%   83 29.87 29.84      
Jun 09 07:04   2 Thunderstorms and Heavy Rain and Fog/Mist BKN048 OVC100 68 64     87%     29.95   0    
Jun 05 21:53 N 7 10 Clear   76 69     79%   77 29.79 29.77